COSMOS 84

Satellite information

Favourite Embed

Satellite Type and Status

PAYLOADIN ORBIT

Key statistics

Satellite COSMOS 84 at a glance.

Uptime

21921

Days in orbit

Revolutions

≈ 12.4

Per day

Orbit

LEO

Low Earth Orbit

Inclination

56.1

Latest

Satellite identification and parameters

Extended collection of information and parameters for COSMOS 84.

Object identification

Identified? True

Debris? False

Object name: COSMOS 84

International designator: 1965-070E

Object number (NORAD): 1574

Object ID (CCSDS): 1574

Country: COMMONWEALTH OF INDEPENDENT STATES (CIS)

Current information (Y/N): Y

RCS size: MEDIUM

Orbital parameters

Period: 116.408 minutes

Inclination: 56.0525 deg

SMA: 7897.341 km

Apoapsis: 1568.355 km

Periapsis: 1470.057 km

RAAN: 88.6042 deg

Eccentricy: 0.00622346

Argument of periapsis: 223.8815 deg

Mean anomaly: 151.8839 deg

Mean motion: 12.37033459 rev/day

Mean motion (dot): -0.00000082 rev/day2

B* drag term: 0.000077863947 1/REarth

Two-line elements (TLE)

Creation date: Sept. 8, 2025, 6:18 p.m.

Reference frame: TEME

Reference center: EARTH

Epoch: Sept. 8, 2025, 11:30 a.m. UTC

TLE line 0: 0 COSMOS 84

TLE line 1: 1 01574U 65070E 25251.47984763 -.00000082 00000-0 77864-4 0 9995

TLE line 2: 2 01574 56.0525 88.6042 0062235 223.8815 151.8839 12.37033459711570

Live tracking on map

Real-time ground track for satellite COSMOS 84.

In-orbit conjunctions

There are no conjunctions computed for COSMOS 84, at the moment. Check back to stay up to date, as we update our databases every day.

Go to all conjunctions

Associated space launch

The Strela-1 satellites were prototype store-dump communications satellites for tactical communication.

COSMOS 84 was lifted into orbit during the mission ‘Kosmos 65S3 | Strela-1 20 to 24’, on board a Kosmos 65S3 space rocket.

The launch took place on Sept. 3, 1965, 2 p.m. from 41/15.

For more information about the launch, click the button.

Launch to space Kosmos 65S3 | Strela-1 20 to 24
Kosmos 65S3 | Strela-1 20 to 24

Agency: N/A

Status: Launch Successful

Launch date: Sept. 3, 1965, 2 p.m. UTC

Rocket: Kosmos 65S3

Launch pad: 41/15

Location: Baikonur Cosmodrome, Republic of Kazakhstan

...

Latest news about this satellite

There are no fresh news available about this satellite. Check back as we update our databases every day.


Newsletter sign-up

Weekly statistics, charts and insights to help you stay on top of the space industry.